TimePDT,TemperatureF,Dew PointF,Humidity,Sea Level PressureIn,VisibilityMPH,Wind Direction,Wind SpeedMPH,Gust SpeedMPH,PrecipitationIn,Events,Conditions,WindDirDegrees,DateUTC
12:53 AM,55.0,52.0,89,30.12,5.0,Calm,Calm,-,N/A,,Overcast,0,2012-09-19 07:53:00
1:53 AM,54.0,52.0,93,30.13,4.0,SSE,4.6,-,N/A,,Overcast,160,2012-09-19 08:53:00
2:20 AM,53.6,51.8,94,30.13,2.0,South,3.5,-,N/A,,Overcast,180,2012-09-19 09:20:00
2:53 AM,54.0,52.0,93,30.13,1.8,SSW,3.5,-,N/A,,Overcast,200,2012-09-19 09:53:00
3:08 AM,53.6,51.8,94,30.13,2.5,South,3.5,-,N/A,,Overcast,190,2012-09-19 10:08:00
3:53 AM,54.0,52.0,93,30.14,3.0,Calm,Calm,-,N/A,,Overcast,0,2012-09-19 10:53:00
4:00 AM,53.6,51.8,94,30.14,2.5,South,3.5,-,N/A,,Overcast,190,2012-09-19 11:00:00
4:24 AM,53.6,51.8,94,30.14,3.0,SSW,3.5,-,N/A,,Overcast,210,2012-09-19 11:24:00
4:53 AM,54.0,51.1,90,30.14,3.0,SSE,3.5,-,N/A,,Overcast,150,2012-09-19 11:53:00
5:17 AM,53.6,51.8,94,30.14,2.5,Calm,Calm,-,N/A,,Overcast,0,2012-09-19 12:17:00
5:46 AM,53.6,51.8,94,30.14,1.5,Calm,Calm,-,N/A,,Overcast,0,2012-09-19 12:46:00
5:53 AM,54.0,52.0,93,30.14,1.5,Calm,Calm,-,N/A,,Overcast,0,2012-09-19 12:53:00
6:53 AM,53.1,52.0,96,30.14,1.5,Calm,Calm,-,N/A,,Overcast,0,2012-09-19 13:53:00
7:53 AM,53.1,51.1,93,30.15,1.5,Variable,4.6,-,N/A,,Overcast,0,2012-09-19 14:53:00
8:04 AM,53.6,51.8,94,30.15,2.5,South,3.5,-,N/A,,Overcast,190,2012-09-19 15:04:00
8:53 AM,54.0,51.1,90,30.16,2.5,Calm,Calm,-,N/A,,Overcast,0,2012-09-19 15:53:00
9:01 AM,53.6,51.8,94,30.16,3.0,Calm,Calm,-,N/A,,Overcast,0,2012-09-19 16:01:00
9:53 AM,54.0,51.1,90,30.17,4.0,Calm,Calm,-,N/A,,Overcast,0,2012-09-19 16:53:00
10:53 AM,55.0,51.1,86,30.17,5.0,Calm,Calm,-,N/A,,Overcast,0,2012-09-19 17:53:00
11:09 AM,55.4,51.8,88,30.17,5.0,West,3.5,-,N/A,,Overcast,270,2012-09-19 18:09:00
11:53 AM,55.9,52.0,87,30.17,5.0,Calm,Calm,-,N/A,,Overcast,0,2012-09-19 18:53:00
12:53 PM,62.1,52.0,70,30.15,6.0,Calm,Calm,-,N/A,,Haze,0,2012-09-19 19:53:00
1:53 PM,61.0,53.1,75,30.14,5.0,WSW,9.2,-,N/A,,Haze,240,2012-09-19 20:53:00
2:22 PM,59.0,51.8,77,30.14,5.0,WSW,9.2,-,N/A,,Haze,250,2012-09-19 21:22:00
2:53 PM,60.1,52.0,75,30.14,5.0,SW,9.2,-,N/A,,Haze,230,2012-09-19 21:53:00
3:53 PM,59.0,52.0,78,30.13,5.0,WSW,9.2,-,N/A,,Haze,250,2012-09-19 22:53:00
4:11 PM,59.0,51.8,77,30.13,5.0,SW,10.4,-,N/A,,Haze,230,2012-09-19 23:11:00
4:23 PM,57.2,51.8,82,30.13,5.0,SW,9.2,-,N/A,,Haze,230,2012-09-19 23:23:00
4:53 PM,57.0,52.0,83,30.12,4.0,West,6.9,-,N/A,,Haze,260,2012-09-19 23:53:00
5:53 PM,55.4,51.8,88,30.11,4.0,West,5.8,-,N/A,,Overcast,260,2012-09-20 00:53:00
6:53 PM,54.0,51.1,90,30.11,3.0,NW,3.5,-,N/A,,Overcast,310,2012-09-20 01:53:00
7:05 PM,53.6,51.8,94,30.10,2.0,Calm,Calm,-,N/A,,Overcast,0,2012-09-20 02:05:00
7:13 PM,53.6,51.8,94,30.10,1.5,NNW,3.5,-,N/A,,Overcast,330,2012-09-20 02:13:00
7:45 PM,53.6,51.8,94,30.11,1.2,Calm,Calm,-,N/A,,Overcast,0,2012-09-20 02:45:00
7:53 PM,53.1,51.1,93,30.11,1.8,WNW,3.5,-,N/A,,Overcast,290,2012-09-20 02:53:00
8:04 PM,53.6,51.8,94,30.11,1.0,West,3.5,-,N/A,,Overcast,280,2012-09-20 03:04:00
8:11 PM,53.6,51.8,94,30.11,0.8,Calm,Calm,-,N/A,,Overcast,0,2012-09-20 03:11:00
8:53 PM,53.1,51.1,93,30.12,0.5,Calm,Calm,-,N/A,Fog,Fog,0,2012-09-20 03:53:00
9:03 PM,51.8,51.8,100,30.11,0.2,West,3.5,-,N/A,Fog,Fog,280,2012-09-20 04:03:00
9:14 PM,51.8,50.0,94,30.11,0.5,WNW,3.5,-,N/A,Fog,Fog,290,2012-09-20 04:14:00
9:53 PM,52.0,51.1,97,30.12,0.8,Calm,Calm,-,N/A,,Mist,0,2012-09-20 04:53:00
10:53 PM,52.0,50.0,93,30.12,0.5,Calm,Calm,-,N/A,Fog,Fog,0,2012-09-20 05:53:00
11:53 PM,52.0,50.0,93,30.12,0.5,Calm,Calm,-,N/A,Fog,Fog,0,2012-09-20 06:53:00